Voltar ao catálogo

ATLAS 5 CENTAUR R/B

AtivoHEO
NORAD 40888·ROCKET BODY·🇺🇸 United States

Lançado Sep 2, 2015 de Cape Canaveral Space Force Station

Loading…

Próximas Passagens (próximas 24 horas)

TLE

AtualizadoSource: Space-Track

Época: Sep 7, 2026, 06:52 UTC

1 40888U 15044B   26250.28666593 -.00000110  00000-0  00000-0 0  9995
2 40888  19.2302 317.8623 6071685  72.3156 342.3753  2.08775769 84026

Acompanhe ATLAS 5 CENTAUR R/B em tempo real com AllMySat

Download on the App Store